THORAD DELTA 1 DEB, 9730

Orbit data source: Space-Track

THORAD DELTA 1 DEB, 9730 is space debris in SSO originally from a launch on Fri, 15 Nov 1974 UTC launched from the Air Force Western Test Range (AFWTR). Debris objects in space refer to the collection of defunct objects orbiting the Earth. Examples of debris include non-operational satellites, rocket bodies, and fragments generated from explosions, collisions, or faulty payload assembly.

Loading next visibility...
Identifier
9730, 1974-089DZ
Orbit
SSO
Country
Flag of USUS
Related business
Manufacturer
Unknown
Mission
Spacecraft
Bus & Motor
Unknown
Mass
Unknown
Launch date (UTC)
1974-11-15 (52 years ago)
Launch vehicle
Unknown
Launch site
Air Force Western Test Range (AFWTR)
Object type
Payload
Rocket body
Debris
Shape & HBR
Unknown shape, 0.1 m
Radar Cross Section
Medium (>0.1 m² and <1 m²)

Expand to show TLE details & history
Last TLE update: 19 hours ago

TLE from 19 hours ago
0 THORAD DELTA 1 DEB
1 09730U 74089DZ  26207.32624260  .00002613  00000-0  52636-2 0  9995
2 09730 101.7528 146.5714 0082118 357.0422 157.2034 13.34120972448343
Epoch: 2026-07-26T07:49Z
TLE epoch observation values (Epoch: 2026-07-26T07:49:47.360Z)
Latitude
24.85323°
Longitude
-89.39972°
Altitude
1,190.993 km
Speed
7.233 km/s
True Right ascension
22h 08m 17s
True Declination
24° 43' 47"
Sunlit
Object was in full shadow at epoch
Visualization orbit readout
Latitude
Unknown
Longitude
Unknown
Altitude
Unknown
Speed
Unknown
Apparent Right ascension
Unknown
Apparent Declination
Unknown
Sunlit
N/A
Visualization observer readout
Local Sidereal Time
16:14:25
Azimuth
Unknown
Elevation
Unknown
Doppler factor
Unknown
Orbital elements
Apogee altitude
1,190.342 km
Perigee altitude
1,067.052 km
Semi-major axis
7,506.834 km
Eccentricity
0.00821
Inclination
101.7528°
RAAN
146.5714°
Arg. of periapsis
357.0422°
True anomaly
157.56458°
Mean anomaly
157.2034°
Eccentric anomaly
157.38433°
Mean motion
3.33701 °/min
Orbital period
107.88 mins
BSTAR
0.0052636
Loading maneuver chart data...
Computing Atmospheric mass density...

Documentation

Showing up to 5 results
|